IW2NIA-3 Weather Reports


Display with metric or nautical units.
time (UTC)temp
F
wind
direction
speed
MPH
gust
MPH
rain 1hr
in
rain 24hr
in
rain mn
in
humidity
%
barometer
mb
20260509230342 57 287 0.0 3.0 0.00 0.00 0.00 80 1014.2
20260509224834 58 286 1.0 3.0 0.00 0.00 0.00 80 1014.2
20260509223330 58 286 0.0 0.0 0.00 0.00 0.00 78 1014.3
20260509221827 58 286 0.0 0.0 0.00 0.00 0.00 77 1014.3
20260509220342 59 286 0.0 2.0 0.00 0.00 0.00 76 1014.3
20260509214837 60 286 0.0 0.0 0.00 0.00 0.00 73 1014.2
20260509213334 60 286 1.0 3.0 0.00 0.00 0.00 74 1014.3
20260509211831 60 278 0.0 0.0 0.00 0.00 0.00 76 1014.2
20260509210341 60 278 0.0 3.0 0.00 0.00 0.00 75 1014.0
20260509204833 60 269 1.0 3.0 0.00 0.00 0.00 76 1014.0
20260509203333 61 269 0.0 0.0 0.00 0.00 0.00 76 1014.0
20260509201848 62 246 0.0 0.0 0.00 0.00 0.00 74 1014.0
20260509200340 62 246 0.0 0.0 0.00 0.00 0.00 73 1013.9
20260509194832 63 246 0.0 0.0 0.00 0.00 0.00 71 1013.8
20260509193333 64 246 0.0 0.0 0.00 0.00 0.00 68 1013.5
20260509191845 65 246 0.0 0.0 0.00 0.00 0.00 65 1013.3
20260509190339 66 246 0.0 0.0 0.00 0.00 0.00 63 1013.3
20260509184844 67 246 0.0 0.0 0.00 0.00 0.00 62 1013.2
20260509183337 68 246 0.0 0.0 0.00 0.00 0.00 61 1013.3
20260509181829 69 246 0.0 0.0 0.00 0.00 0.00 58 1013.3
20260509180339 70 246 0.0 0.0 0.00 0.00 0.00 54 1013.3
20260509174841 71 246 0.0 0.0 0.00 0.00 0.00 50 1013.2
20260509173337 72 246 0.0 1.0 0.00 0.00 0.00 46 1013.2
20260509171834 72 243 1.0 5.0 0.00 0.00 0.00 46 1013.2
20260509170331 73 250 2.0 4.0 0.00 0.00 0.00 42 1013.3
20260509164825 73 252 0.0 4.0 0.00 0.00 0.00 39 1013.3
20260509163339 74 262 0.0 4.0 0.00 0.00 0.00 40 1013.4
20260509161837 75 240 2.0 4.0 0.00 0.00 0.00 43 1013.4
20260509160330 75 275 1.0 3.0 0.00 0.00 0.00 41 1013.5
20260509154839 74 255 3.0 6.0 0.00 0.00 0.00 42 1013.6
20260509153335 75 281 2.0 5.0 0.00 0.00 0.00 45 1013.7
20260509151837 75 255 2.0 10.0 0.00 0.00 0.00 49 1013.8
20260509150339 74 227 3.0 9.0 0.00 0.00 0.00 48 1013.7
20260509144832 75 259 3.0 7.0 0.00 0.00 0.00 48 1013.8
20260509143331 74 327 0.0 5.0 0.00 0.00 0.00 46 1013.8
20260509141831 74 256 3.0 5.0 0.00 0.00 0.00 49 1013.9
20260509140333 74 284 4.0 9.0 0.00 0.00 0.00 48 1014.1
20260509134829 73 223 5.0 9.0 0.00 0.00 0.00 49 1014.2
20260509133343 74 233 4.0 11.0 0.00 0.00 0.00 49 1014.5
20260509131839 74 201 4.0 12.0 0.00 0.00 0.00 54 1014.7
20260509130329 73 220 5.0 9.0 0.00 0.00 0.00 50 1014.9
20260509124842 73 238 8.0 12.0 0.00 0.00 0.00 52 1015.0
20260509123335 73 221 5.0 9.0 0.00 0.00 0.00 53 1014.9
20260509121831 73 241 3.0 10.0 0.00 0.00 0.00 47 1015.1
20260509120330 73 202 2.0 10.0 0.00 0.00 0.00 50 1015.0
20260509114844 73 214 2.0 5.0 0.00 0.00 0.00 48 1015.2
20260509113340 71 246 2.0 6.0 0.00 0.00 0.00 52 1015.2
20260509111830 71 209 2.0 6.0 0.00 0.00 0.00 49 1015.4
20260509110329 71 277 3.0 6.0 0.00 0.00 0.00 53 1015.6
20260509104847 70 286 1.0 5.0 0.00 0.00 0.00 54 1016.0
20260509103336 70 187 3.0 4.0 0.00 0.00 0.00 54 1016.1
20260509101832 69 273 1.0 5.0 0.00 0.00 0.00 54 1016.2
20260509100343 69 151 2.0 4.0 0.00 0.00 0.00 54 1016.4
20260509094832 68 205 1.0 4.0 0.00 0.00 0.00 58 1016.5
20260509093335 68 189 1.0 4.0 0.00 0.00 0.00 63 1016.6
20260509091833 67 246 3.0 5.0 0.00 0.00 0.00 65 1016.5
20260509090327 67 221 5.0 7.0 0.00 0.00 0.00 66 1016.6
20260509084843 66 243 2.0 5.0 0.00 0.00 0.00 66 1016.7
20260509083340 65 134 2.0 5.0 0.00 0.00 0.00 69 1016.7
20260509081838 65 112 0.0 4.0 0.00 0.00 0.00 69 1016.7
20260509080330 65 221 3.0 5.0 0.00 0.00 0.00 71 1016.9
20260509074828 65 151 1.0 5.0 0.00 0.00 0.00 73 1016.9
20260509073343 64 207 1.0 3.0 0.00 0.00 0.00 72 1017.0
20260509071830 63 116 4.0 5.0 0.00 0.00 0.00 74 1016.9
20260509070330 62 111 0.0 3.0 0.00 0.00 0.00 75 1016.8
20260509064843 61 118 4.0 6.0 0.00 0.00 0.00 77 1016.9
20260509063339 60 107 3.0 5.0 0.00 0.00 0.00 80 1016.9
20260509061837 59 84 2.0 4.0 0.00 0.00 0.00 83 1016.8
20260509060331 58 13 0.0 3.0 0.00 0.00 0.00 86 1016.7
20260509054844 56 5 0.0 0.0 0.00 0.00 0.00 89 1016.8
20260509053335 54 5 0.0 0.0 0.00 0.00 0.00 90 1016.8
20260509051827 53 5 0.0 3.0 0.00 0.00 0.00 91 1016.6
20260509050337 52 360 3.0 4.0 0.00 0.00 0.00 91 1016.7
20260509044846 51 39 1.0 3.0 0.00 0.00 0.00 91 1016.4
20260509043335 50 39 2.0 4.0 0.00 0.00 0.00 91 1016.1
20260509041845 50 39 0.0 3.0 0.00 0.00 0.00 91 1016.0
20260509034833 51 39 2.0 3.0 0.00 0.00 0.00 90 1015.9
20260509033325 51 39 1.0 3.0 0.00 0.00 0.00 90 1015.9
20260509031825 51 39 3.0 3.0 0.00 0.00 0.00 90 1016.0
20260509030339 51 30 1.0 4.0 0.00 0.00 0.00 90 1016.1
20260509024833 52 53 2.0 3.0 0.00 0.00 0.00 90 1016.0
20260509023343 52 56 0.0 3.0 0.00 0.00 0.00 90 1015.7
20260509021837 52 55 2.0 4.0 0.00 0.00 0.00 90 1015.8
20260509020332 52 42 1.0 3.0 0.00 0.00 0.00 90 1015.9
20260509014842 52 38 1.0 3.0 0.00 0.00 0.00 91 1016.0
20260509013339 52 32 0.0 2.0 0.00 0.00 0.00 90 1016.3
20260509011832 52 32 0.0 2.0 0.00 0.00 0.00 91 1016.3
20260509010328 52 63 2.0 4.0 0.00 0.00 0.00 91 1016.1
20260509004842 52 63 2.0 4.0 0.00 0.00 0.00 90 1016.2
20260509003332 52 26 1.0 3.0 0.00 0.00 0.00 90 1016.2
20260509001827 53 26 2.0 4.0 0.00 0.00 0.00 89 1016.1
20260509000343 53 32 0.0 0.0 0.00 0.00 0.00 89 1016.1
20260508234842 53 32 0.0 0.0 0.00 0.00 0.00 89 1016.0